This is the latest recevied weather packets stored in our database for station/object WB0YAF-8. If no packets are shown the sender has not sent any weather packets the latest 1 day(s).
| Time | Temp. | Humidity | Pressure | Rain* | Wind** | Luminosity | Snow |
|---|---|---|---|---|---|---|---|
| 1778036575 | 0° C | 67% | 1014.8 hPa | 0 mm | - | - | - |
| 1778036275 | 0° C | 69% | 1014.8 hPa | 0 mm | - | - | - |
| 1778035976 | 0.56° C | 72% | 1014.8 hPa | 0 mm | - | - | - |
| 1778035676 | 0.56° C | 71% | 1014.8 hPa | 0 mm | - | - | - |
| 1778035376 | 0.56° C | 75% | 1014.8 hPa | 0 mm | - | - | - |
| 1778035074 | 0.56° C | 74% | 1014.8 hPa | 0 mm | - | - | - |
| 1778034774 | 0.56° C | 73% | 1014.8 hPa | 0 mm | - | - | - |
| 1778034474 | 0.56° C | 74% | 1013.8 hPa | 0 mm | - | - | - |
| 1778034175 | 0.56° C | 73% | 1013.8 hPa | 0 mm | - | - | - |
| 1778033875 | 0.56° C | 74% | 1013.8 hPa | 0 mm | - | - | - |
| 1778033574 | 0.56° C | 75% | 1013.8 hPa | 0 mm | - | - | - |
| 1778033275 | 0.56° C | 80% | 1013.8 hPa | 0 mm | - | - | - |
| 1778032675 | 1.11° C | 77% | 1013.8 hPa | 0 mm | - | - | - |
| 1778032374 | 1.11° C | 75% | 1013.8 hPa | 0 mm | - | - | - |
| 1778032076 | 1.67° C | 76% | 1013.8 hPa | 0 mm | - | - | - |
| 1778031776 | 2.22° C | 80% | 1013.8 hPa | 0 mm | - | - | - |
| 1778031474 | 2.22° C | 80% | 1013.8 hPa | 0 mm | - | - | - |
| 1778031174 | 2.22° C | 80% | 1013.6 hPa | 0 mm | - | - | - |
| 1778030874 | 2.22° C | 80% | 1012.8 hPa | 0 mm | - | - | - |
| 1778030575 | 2.22° C | 80% | 1012.8 hPa | 0 mm | - | - | - |
| 1778030275 | 1.67° C | 80% | 1012.8 hPa | 0 mm | - | - | - |
| 1778029974 | 1.67° C | 80% | 1012.8 hPa | 0 mm | - | - | - |
| 1778029675 | 1.67° C | 79% | 1012.8 hPa | 0 mm | - | - | - |
| 1778029375 | 1.67° C | 80% | 1012.8 hPa | 0 mm | - | - | - |
| 1778029075 | 2.22° C | 80% | 1013.8 hPa | 0 mm | - | - | - |
* Rain latest hour (hover to see other rain measurements)
** Current wind speed in m/s (hover to see current wind gust speed)